Location: NJAA Observatory
(40.6819°N, 74.8979°W)
Time: 08:22:35
(UTC-04:00)

Transit 2A Rocket - Visible Passes

Search period start: 24 June 2017 00:00
Search period end: 04 July 2017 00:00
Orbit: 591 x 913 km, 66.7° (Epoch: 23 June)

Date Brightness Start Highest point End Pass type
(mag) Time Alt. Az. Time Alt. Az. Time Alt. Az.
24 Jun 8.5 03:48:33 10° NNE 03:51:05 13° NE 03:53:41 10° ENE visible
24 Jun 7.8 21:48:30 10° W 21:51:35 18° NW 21:54:48 10° N visible
25 Jun 6.6 04:46:57 10° NNW 04:52:01 43° NE 04:57:29 10° SE visible
25 Jun 6.9 21:05:03 10° WSW 21:08:54 30° NW 21:12:57 10° N visible
26 Jun 7.4 04:04:56 10° N 04:09:27 27° NE 04:14:15 10° ESE visible
27 Jun 8.0 03:23:09 10° N 03:26:44 18° NE 03:30:29 10° E visible
27 Jun 8.1 21:24:56 10° WNW 21:27:12 14° NW 21:29:31 10° N visible
28 Jun 8.3 02:41:59 10° NNE 02:43:53 12° NE 02:45:50 10° ENE visible
28 Jun 5.8 04:22:09 10° NNW 04:27:28 60° ENE 04:33:14 10° SE visible
29 Jun 6.7 03:40:00 10° NNW 03:44:58 37° NE 03:50:17 10° ESE visible
30 Jun 7.4 02:58:01 10° N 03:02:20 24° NE 03:06:54 10° ESE visible
30 Jun 5.2 04:39:53 10° NW 04:45:15 59° WSW 04:51:01 10° SSE visible
01 Jul 7.9 02:16:22 10° N 02:19:34 16° NE 02:22:56 10° E visible
01 Jul 5.2 03:57:26 10° NNW 04:02:53 84° ENE 04:08:46 10° SSE visible
02 Jul 8.2 01:35:52 10° NNE 01:36:41 10° NE 01:37:31 10° NE visible
02 Jul 6.0 03:15:09 10° NNW 03:20:25 51° NE 03:26:07 10° SE visible
03 Jul 6.8 02:33:03 10° NNW 02:37:52 32° NE 02:43:02 10° ESE visible
03 Jul 5.6 04:15:24 10° NW 04:20:34 41° WSW 04:26:03 10° S visible
